Regional Weather Roundup
Issued by NWS

Home | Current Version | Previous Version | Graphics & Text | Print | Product List | Glossary Off
Versions: 1 2 3 4 5 6 7 8 9 10 11 12 13 14 15 16 17 18 19 20 21 22 23 24 25 26 27 28 29 30 31 32 33 34 35 36 37 38 39 40 41 42 43 44 45 46 47 48 49 50

162
ASUS43 KDTX 230010
RWRMI
MICHIGAN HOURLY REGIONAL WEATHER ROUNDUP
NATIONAL WEATHER SERVICE DETROIT/PONTIAC MI
800 PM EDT TUE AUG 22 2017

NOTE: "FAIR" INDICATES FEW OR NO CLOUDS BELOW 12,000 FEET WITH NO
SIGNIFICANT WEATHER AND/OR OBSTRUCTION TO VISIBILITY.

MIZ047>049-052>055-059>063-066>070-074>076-081>083-230100-
SOUTHEAST LOWER MICHIGAN

CITY           SKY/WX    TMP DP  RH WIND       PRES   REMARKS
ADRIAN         CLEAR     72  55  55 NW14      29.88R
6HR MIN TEMP:  70; 6HR MAX TEMP:  80; 6HR PCP:  0.03;

ALMA           CLEAR     68  50  51 W8        29.88R
ANN ARBOR      PTCLDY    74  58  57 W15G23    29.85R
BAD AXE        CLEAR     67  52  57 W7        29.82R
CARO           CLEAR     67  54  62 W3        29.83R
DETROIT CITY   CLOUDY    74  60  61 NW15G21   29.83R
6HR MIN TEMP:  71; 6HR MAX TEMP:  80; 6HR PCP:  0.08;

DETROIT        MOCLDY    76  59  55 NW13G21   29.84R
6HR MIN TEMP:  74; 6HR MAX TEMP:  83; 6HR PCP:  0.01;

FLINT          CLEAR     69  53  56 NW13      29.86R
6HR MIN TEMP:  67; 6HR MAX TEMP:  78; 6HR PCP:  0.14;

GROSSE ILE     PTCLDY    76  58  53 NW15      29.82R
6HR MIN TEMP:  73; 6HR MAX TEMP:  82;

HILLSDALE      CLEAR     68  54  60 NW14      29.90R
HOWELL         PTCLDY    70  52  53 NW10      29.87R
6HR MIN TEMP:  70; 6HR MAX TEMP:  78; 6HR PCP:  0.03;


CITY           SKY/WX    TMP DP  RH WIND       PRES   REMARKS
JACKSON        CLEAR     70  54  56 W10       29.89R
6HR MIN TEMP:  70; 6HR MAX TEMP:  77;

LAMBERTVILLE   CLEAR     74  60  61 NW7       29.85R
6HR MIN TEMP:  74; 6HR MAX TEMP:  80;

LANSING        CLEAR     69  50  50 NW10      29.89R
6HR MIN TEMP:  69; 6HR MAX TEMP:  78;

LAPEER         MOCLDY    70  53  55 N7        29.85R
6HR MIN TEMP:  68; 6HR MAX TEMP:  80;

MASON          CLEAR     71  52  51 NW12G17   29.89R
MONROE         PTCLDY    74  60  61 W8        29.84R
6HR MIN TEMP:  70; 6HR MAX TEMP:  81; 6HR PCP:  0.08;

MT. CLEMENS    PTCLDY    72  62  70 NW8       29.81R
6HR MIN TEMP:  70; 6HR MAX TEMP:  82; 6HR PCP:  0.36;

PONTIAC        MOCLDY    71  58  63 NW14      29.84R
6HR MIN TEMP:  70; 6HR MAX TEMP:  79; 6HR PCP:  0.05;

PORT HOPE        N/A     69  52  54 W12       29.78R
6HR MIN TEMP:  67; 6HR MAX TEMP:  77; 6HR PCP:  0.02;

PORT HURON     MOCLDY    72  57  60 NW7       29.83R
TRI CITIES     CLEAR     69  56  62 W9        29.85R
6HR MIN TEMP:  69; 6HR MAX TEMP:  79; 6HR PCP: TRACE;

MIDLAND        FAIR      69  52  54 W7        29.84R
6HR MIN TEMP:  67; 6HR MAX TEMP:  79; 6HR PCP:  0.04;

TROY           PTCLDY    74  58  59 NW8G20    29.85R
SAGINAW HB     CLEAR     70  54  56 W12       29.84R
$$
MIZ043>046-050>051-056>058-064>065-071>073-077>080-230100-
SOUTHWEST LOWER MICHIGAN

CITY           SKY/WX    TMP DP  RH WIND       PRES   REMARKS
BATTLE CREEK   CLEAR     70  54  56 NW14      29.92R
6HR MIN TEMP:  70; 6HR MAX TEMP:  77;

BENTON HARBOR  CLEAR     72  55  55 CALM      29.92S
6HR MIN TEMP:  72; 6HR MAX TEMP:  78;

BIG RAPIDS     PTCLDY    67  49  52 NW10G20   29.88R
6HR MIN TEMP:  67; 6HR MAX TEMP:  71;

COLDWATER      CLEAR     69  52  54 NW12      29.92R
6HR MIN TEMP:  69; 6HR MAX TEMP:  77;

FREMONT        FAIR      68  54  59 NW7       29.89S
HOLLAND        CLEAR     71  54  54 N8        29.92R
6HR MIN TEMP:  71; 6HR MAX TEMP:  76;

GRAND RAPIDS   PTCLDY    71  52  50 NW13G22   29.90R
6HR MIN TEMP:  71; 6HR MAX TEMP:  78;

IONIA          FAIR      70  51  51 NW7       29.89R
6HR MIN TEMP:  70; 6HR MAX TEMP:  78; 6HR PCP:  0.01;

KALAMAZOO      CLEAR     71  52  50 NW14      29.93R
6HR MIN TEMP:  71; 6HR MAX TEMP:  78;

LUDINGTON      CLEAR     68  53  58 NW6       29.88S
6HR MIN TEMP:  68; 6HR MAX TEMP:  73;

MARSHALL       CLEAR     69  51  53 W13G21    29.90R
6HR MIN TEMP:  69; 6HR MAX TEMP:  78;

MOUNT PLEASANT CLEAR     70  51  51 W6        29.86R
6HR MIN TEMP:  68; 6HR MAX TEMP:  79; 6HR PCP:  0.11;

MUSKEGON       CLEAR     72  53  51 NW8       29.90S
6HR MIN TEMP:  72; 6HR MAX TEMP:  77;

SOUTH HAVEN    CLEAR     71  54  55 NW8       29.92S
$$
MIZ016>042-230100-
NORTHERN LOWER MICHIGAN

CITY           SKY/WX    TMP DP  RH WIND       PRES   REMARKS
ALPENA         PTCLDY    67  52  58 W6        29.78R
6HR MIN TEMP:  67; 6HR MAX TEMP:  73;

BEAVER ISLAND  CLEAR     65  51  58 NW9       29.82R
6HR MIN TEMP:  65; 6HR MAX TEMP:  72;

BELLAIRE       CLEAR     67  50  53 NW7G18    29.83R
6HR MIN TEMP:  65; 6HR MAX TEMP:  70;

CADILLAC       CLEAR     66  47  49 W13       29.87R
CHARLEVOIX     CLEAR     66  54  64 NW10G16   29.85R
6HR MIN TEMP:  65; 6HR MAX TEMP:  69;

FRANKFORT      MOCLDY    70  54  57 NW8       29.86S
GAYLORD        PTCLDY    63  48  58 NW9       29.82R
6HR MIN TEMP:  62; 6HR MAX TEMP:  66; 6HR PCP: TRACE;

GRAYLING       CLEAR     65  46  51 W10G18    29.84R
6HR MIN TEMP:  65; 6HR MAX TEMP:  70;

HARBOR SPRINGS CLEAR     65  47  53 NW10      29.81R
HOUGHTON LAKE  PTCLDY    66  50  56 NW10      29.85R
6HR MIN TEMP:  66; 6HR MAX TEMP:  71;

MANISTEE       PTCLDY    69  57  65 W8        29.87R
OSCODA         MOCLDY    68  52  55 W13G18    29.79R
6HR MIN TEMP:  68; 6HR MAX TEMP:  76;

PELLSTON       CLEAR     64  51  62 NW15G23   29.80R
6HR MIN TEMP:  64; 6HR MAX TEMP:  70;

ROGERS CITY    CLEAR     65  51  60 NW9G23    29.78R
TRAVERSE CITY  PTCLDY    70  48  45 NW13      29.83R
6HR MIN TEMP:  69; 6HR MAX TEMP:  74;

$$
MIZ007>008-015-230100-
EASTERN UPPER MICHIGAN

CITY           SKY/WX    TMP DP  RH WIND       PRES   REMARKS
KINROSS        PTCLDY    61  50  67 W14G25    29.77R
6HR MIN TEMP:  61; 6HR MAX TEMP:  68;

MACKINAC ISLAN PTCLDY    63  51  66 NW13G24   29.79R
6HR MIN TEMP:  63; 6HR MAX TEMP:  69;

NEWBERRY       PTCLDY    61  52  73 W16       29.79S
6HR MIN TEMP:  61; 6HR MAX TEMP:  67;

S. S. MARIE    CLEAR     62  52  69 NW14G26   29.75S
6HR MIN TEMP:  62; 6HR MAX TEMP:  65;

MUNISING         N/A     66  55  67 VRB5      29.81S
6HR MIN TEMP:  65; 6HR MAX TEMP:  67;

$$
MIZ004>006-011>014-085-230100-
CENTRAL UPPER MICHIGAN

CITY           SKY/WX    TMP DP  RH WIND       PRES   REMARKS
MANISTIQUE     CLEAR     63  47  56 NW5       29.81S
6HR MIN TEMP:  63; 6HR MAX TEMP:  71;

ESCANABA       CLEAR     66  51  58 W5        29.84R
6HR MIN TEMP:  66; 6HR MAX TEMP:  72;

MENOMINEE      PTCLDY    67  51  56 VRB5      29.88R
6HR MIN TEMP:  67; 6HR MAX TEMP:  73; 6HR PCP: TRACE;

SAWYER-GWINN   CLEAR     63  48  59 W9        29.85S
$$
MIZ001>003-009>011-084-230100-
WESTERN UPPER MICHIGAN

CITY           SKY/WX    TMP DP  RH WIND       PRES   REMARKS
IRON MOUNTAIN  MOCLDY    65  49  56 W12G18    29.87R
6HR MIN TEMP:  65; 6HR MAX TEMP:  70; 6HR PCP: TRACE;

HOUGHTON       CLOUDY    61  51  70 W13       29.84R
6HR MIN TEMP:  61; 6HR MAX TEMP:  67; 6HR PCP: TRACE;

COPPER HARBOR    N/A     58  53  84 NW5       29.81R
6HR MIN TEMP:  57; 6HR MAX TEMP:  67; 6HR PCP:  0.03;

IRONWOOD       CLOUDY    64  52  64 W16G25    29.92S
6HR MIN TEMP:  63; 6HR MAX TEMP:  67;

$$

ABBREVIATIONS USED IN REMARKS
   TC - TEMPERATURE IN CELSIUS
  WCI - WIND CHILL INDEX
   HX - HEAT INDEX
  VSB - VISIBILITY





USA.gov is the U.S. government's official web portal to all federal, state and local government web resources and services.